Gold Coast Seaway Observation History
Time Wind Speed Temp Pressure Rel. Hum Rain
26/04:30pm ENE 7-9 kts 20.6°c 1017.4 hPa 70% 0.0mm
26/04:00pm E 9-10 kts 21.6°c 1017.1 hPa 69% 0.0mm
26/03:30pm ENE 7-9 kts 20.7°c 1017.2 hPa 69% 0.0mm
26/03:00pm ENE 8 kts 21.2°c 1016.9 hPa 69% 0.0mm
26/02:30pm ENE 7-8 kts 22.0°c 1016.7 hPa 65% 0.0mm
26/02:00pm ENE 8-10 kts 20.9°c 1016.7 hPa 67% 0.0mm
26/01:30pm ENE 9-10 kts 22.4°c 1017.2 hPa 62% 0.0mm
26/01:00pm E 9-10 kts 22.7°c 1017.4 hPa 65% 0.0mm
26/12:30pm ESE 9 kts 22.8°c 1017.7 hPa 67% 0.0mm
26/12:00pm E 8-9 kts 22.7°c 1018.2 hPa 65% 0.0mm
26/11:30am ESE 7-8 kts 22.5°c 1018.6 hPa 67% 0.0mm
26/11:00am NE 5 kts 23.1°c 1018.9 hPa 55% 0.0mm
26/10:30am NNW 4-7 kts 23.4°c 1019.1 hPa 52% 0.0mm
26/10:00am NNE 8-9 kts 22.3°c 1019.3 hPa 63% 0.0mm
26/09:30am N 7-9 kts 21.8°c 1019.5 hPa 54% 0.0mm
26/09:00am NNE 7-8 kts 19.9°c 1019.7 hPa 65% 0.0mm
26/08:30am NNE 5-6 kts 18.9°c 1019.8 hPa 73% 0.0mm
26/08:00am NW 4 kts 16.5°c 1019.7 hPa 74% 0.0mm
26/07:30am WNW 6 kts 15.8°c 1019.5 hPa 81% 0.0mm
26/07:00am NW 5-6 kts 14.2°c 1019.1 hPa 86% 0.0mm
26/06:30am WNW 5-6 kts 13.5°c 1018.8 hPa 89% 0.0mm
26/06:00am WNW 7 kts 13.4°c 1018.5 hPa 91% 0.0mm
26/05:30am WNW 7 kts 13.4°c 1018.0 hPa 92% 0.0mm
26/05:00am WNW 5-6 kts 12.7°c 1017.7 hPa 92% 0.0mm
26/04:30am NW 4-5 kts 12.8°c 1017.6 hPa 91% 0.0mm
26/04:00am W 4-5 kts 13.0°c 1017.5 hPa 89% 0.0mm
26/03:30am WNW 6-7 kts 14.1°c 1017.3 hPa 90% 0.0mm
26/03:00am WNW 5-6 kts 14.2°c 1017.4 hPa 90% 0.0mm
26/02:30am WNW 5-6 kts 14.0°c 1017.4 hPa 90% 0.0mm
26/02:00am W 6-7 kts 14.4°c 1017.7 hPa 91% 0.0mm
26/01:30am WNW 6-7 kts 14.3°c 1017.8 hPa 91% 0.0mm
26/01:00am WNW 3-6 kts 13.6°c 1018.2 hPa 90% 0.0mm
26/12:30am CALM 0 kts 13.6°c 1018.1 hPa 85% 0.0mm
26/12:00am SSW 6-8 kts 14.6°c 1018.5 hPa 86% 0.0mm
Time Wind Speed Temp Pressure Rel. Hum Rain
25/11:30pm NW 7-8 kts 15.3°c 1018.1 hPa 86% 0.0mm
25/11:00pm WNW 7 kts 15.2°c 1018.6 hPa 88% 0.0mm
25/10:30pm WNW 5 kts 13.9°c 1018.5 hPa 88% 0.0mm
25/10:00pm CALM 0 kts 14.1°c 1018.6 hPa 85% 0.0mm
25/09:30pm WNW 4 kts 14.5°c 1018.8 hPa 82% 0.0mm
25/09:00pm NW 5-6 kts 15.6°c 1018.7 hPa 80% 0.0mm
25/08:30pm NW 5-7 kts 16.4°c 1018.5 hPa 80% 0.0mm
25/08:00pm NNW 5-7 kts 16.7°c 1018.4 hPa 76% 0.0mm
25/07:30pm NNW 5-6 kts 17.5°c 1018.3 hPa 73% 0.0mm
25/07:00pm NNW 6-8 kts 17.6°c 1018.2 hPa 69% 0.0mm
25/06:30pm NNW 6-9 kts 18.2°c 1017.7 hPa 74% 0.0mm
25/06:00pm N 12-15 kts 18.9°c 1017.5 hPa 75% 0.0mm
25/05:30pm N 14-16 kts 19.4°c 1017.0 hPa 74% 0.0mm
25/05:00pm N 16-18 kts 19.9°c 1016.6 hPa 71% 0.0mm
25/04:30pm N 13-16 kts 20.6°c 1016.5 hPa 72% 0.0mm
25/04:00pm NNE 14-16 kts 21.7°c 1016.4 hPa 68% 0.0mm
25/03:30pm NNE 14-16 kts 22.5°c 1016.3 hPa 66% 0.0mm
25/03:00pm NNE 13-15 kts 23.3°c 1016.4 hPa 61% 0.0mm
25/02:30pm NNE 14-16 kts 23.4°c 1016.5 hPa 59% 0.0mm
25/02:00pm N 16-18 kts 23.4°c 1016.7 hPa 53% 0.0mm
25/01:30pm N 15-17 kts 23.4°c 1017.0 hPa 54% 0.0mm
25/01:00pm N 11-16 kts 24.5°c 1017.4 hPa 47% 0.0mm
25/12:30pm N 11-16 kts 23.7°c 1018.1 hPa 53% 0.0mm
25/12:00pm NNW 11-16 kts 23.3°c 1018.5 hPa 49% 0.0mm
25/11:30am NW 10-13 kts 22.4°c 1019.1 hPa 52% 0.0mm
25/11:00am NW 13-17 kts 21.5°c 1019.8 hPa 53% 0.0mm
25/10:30am NW 14-16 kts 21.1°c 1020.3 hPa 55% 0.0mm
25/10:00am NW 13-16 kts 20.4°c 1020.6 hPa 55% 0.0mm
25/09:30am NNW 7-10 kts 18.9°c 1020.9 hPa 61% 0.0mm
25/09:00am NW 9-12 kts 18.4°c 1021.1 hPa 64% 0.0mm
25/08:30am NW 7-8 kts 17.2°c 1021.3 hPa 68% 0.0mm
25/08:00am NW 5-7 kts 14.9°c 1021.1 hPa 81% 0.0mm
25/07:30am NW 6-7 kts 13.0°c 1021.0 hPa 87% 0.0mm
25/07:00am NW 7-9 kts 12.7°c 1020.6 hPa 90% 0.0mm
25/06:30am NW 6-7 kts 12.4°c 1020.4 hPa 91% 0.0mm
25/06:00am NW 6 kts 13.0°c 1020.3 hPa 91% 0.0mm
25/05:30am WNW 6-7 kts 12.9°c 1019.9 hPa 89% 0.0mm
25/05:00am NW 6 kts 12.9°c 1019.9 hPa 88% 0.0mm
25/04:30am NW 5-7 kts 13.1°c 1019.9 hPa 87% 0.0mm
25/04:00am WNW 6-7 kts 13.2°c 1019.9 hPa 87% 0.0mm
25/03:30am NW 6-7 kts 13.0°c 1019.9 hPa 87% 0.0mm
25/03:00am WNW 6-7 kts 13.2°c 1020.0 hPa 87% 0.0mm
25/02:30am WNW 5-6 kts 13.1°c 1020.2 hPa 89% 0.0mm
25/02:00am W 4-5 kts 12.0°c 1020.4 hPa 85% 0.0mm
25/01:30am W 5-6 kts 13.2°c 1020.8 hPa 83% 0.0mm
25/01:00am WNW 6-8 kts 13.9°c 1021.0 hPa 80% 0.0mm
25/12:30am WNW 5-6 kts 13.5°c 1021.1 hPa 81% 0.0mm
25/12:00am W 6-7 kts 13.6°c 1021.3 hPa 81% 0.0mm
Time Wind Speed Temp Pressure Rel. Hum Rain
24/11:30pm WNW 6-7 kts 14.1°c 1021.5 hPa 79% 0.0mm
24/11:00pm NW 7-8 kts 14.7°c 1021.5 hPa 78% 0.0mm
24/10:30pm WNW 6 kts 14.3°c 1021.8 hPa 75% 0.0mm
24/10:00pm WNW 7-8 kts 14.6°c 1021.8 hPa 74% 0.0mm
24/09:30pm W 5-7 kts 14.5°c 1021.9 hPa 75% 0.0mm
24/09:00pm WNW 7-8 kts 15.1°c 1022.0 hPa 74% 0.0mm
24/08:30pm NW 7-9 kts 15.7°c 1022.0 hPa 72% 0.0mm
24/08:00pm NW 7-9 kts 16.0°c 1022.0 hPa 72% 0.0mm
24/07:30pm NNW 9-14 kts 16.7°c 1021.8 hPa 69% 0.0mm
24/07:00pm N 10-15 kts 17.1°c 1021.8 hPa 65% 0.0mm
24/06:30pm N 15-17 kts 17.8°c 1021.6 hPa 66% 0.0mm
24/06:00pm NNE 15-17 kts 17.8°c 1021.2 hPa 64% 0.0mm
24/05:30pm NNE 16-18 kts 18.0°c 1021.2 hPa 65% 0.0mm
24/05:00pm NNE 16-18 kts 18.5°c 1021.2 hPa 61% 0.0mm
24/04:30pm NNE 16-18 kts 19.3°c 1021.1 hPa 59% 0.0mm
24/04:00pm NNE 16-19 kts 20.2°c 1021.0 hPa 57% 0.0mm
24/03:30pm NNE 16-18 kts 20.6°c 1021.0 hPa 57% 0.0mm
24/03:00pm NNE 15-17 kts 21.0°c 1021.1 hPa 55% 0.0mm
24/02:30pm NNE 13-15 kts 20.7°c 1021.3 hPa 54% 0.0mm
24/02:00pm NNE 13-14 kts 21.3°c 1021.7 hPa 54% 0.0mm
24/01:30pm NNE 11-14 kts 21.1°c 1022.1 hPa 56% 0.0mm
24/01:00pm NNE 9-12 kts 20.6°c 1022.5 hPa 58% 0.0mm
24/12:30pm NE 8-10 kts 21.1°c 1023.1 hPa 60% 0.0mm
24/12:00pm NE 7-8 kts 20.7°c 1023.7 hPa 61% 0.0mm
24/11:30am ENE 6-7 kts 20.5°c 1024.2 hPa 60% 0.0mm
24/11:00am ESE 5-6 kts 20.7°c 1024.6 hPa 61% 0.0mm
24/10:30am SE 5-6 kts 20.0°c 1024.8 hPa 64% 0.0mm
24/10:00am SE 5-6 kts 19.7°c 1025.0 hPa 64% 0.0mm
24/09:30am SSE 6-7 kts 18.8°c 1025.3 hPa 64% 0.0mm
24/09:00am SSE 6-7 kts 18.4°c 1025.3 hPa 65% 0.0mm
24/08:30am SSW 5-6 kts 17.3°c 1025.6 hPa 69% 0.0mm
24/08:00am SW 5-7 kts 15.6°c 1025.5 hPa 75% 0.0mm
24/07:30am SW 5-7 kts 14.1°c 1025.2 hPa 81% 0.0mm
24/07:00am SW 5-6 kts 12.8°c 1024.9 hPa 86% 0.0mm
24/06:30am SW 7-8 kts 11.9°c 1025.0 hPa 86% 0.0mm
24/06:00am SW 7-8 kts 12.0°c 1024.7 hPa 86% 0.0mm
24/05:30am SW 7-8 kts 12.2°c 1024.6 hPa 86% 0.0mm
24/05:00am SW 7 kts 12.1°c 1024.4 hPa 85% 0.0mm
24/04:30am SW 6-7 kts 12.1°c 1024.3 hPa 85% 0.0mm
24/04:00am SW 6-7 kts 12.1°c 1023.9 hPa 85% 0.0mm
24/03:30am SW 4-6 kts 12.0°c 1023.8 hPa 85% 0.0mm
24/03:00am SW 5-6 kts 12.4°c 1023.8 hPa 85% 0.0mm
24/02:30am SW 6-7 kts 12.3°c 1023.9 hPa 83% 0.0mm
24/02:00am SW 6-8 kts 12.7°c 1024.2 hPa 83% 0.0mm
24/01:30am SW 6-8 kts 12.7°c 1024.3 hPa 82% 0.0mm
24/01:00am SW 6-8 kts 12.8°c 1024.6 hPa 81% 0.0mm
24/12:30am SW 7-8 kts 13.1°c 1024.8 hPa 80% 0.0mm
24/12:00am SW 6-7 kts 13.2°c 1025.0 hPa 79% 0.0mm